Regional Weather Roundup
Issued by NWS Wakefield, VA

Home | Current Version | Previous Version | Text Only | Print | Product List | Glossary On
Versions: 1 2 3 4 5 6 7 8 9 10 11 12 13 14 15 16 17 18 19 20 21 22 23 24 25 26 27 28 29 30 31 32 33 34 35 36 37 38 39 40 41 42 43 44 45 46 47 48 49 50
000
ASUS41 KAKQ 121315
RWRAKQ

REGIONAL WEATHER ROUNDUP
NATIONAL WEATHER SERVICE WAKEFIELD VA
800 AM EST FRI FEB 12 2016

Note: "fair" indicates few or no clouds below 12,000 feet with no
significant weather and/or obstructions to visibility. * = Denotes
station may not report precipitation (e.g., rain,snow,etc.),
thunder or fog.

VAZ042-051-052>054-056-121400-
NORTHERN VIRGINIA

CITY           SKY/WX    TMP DP  RH WIND       PRES   REMARKS
WASH NATIONAL  MOCLDY    21   3  45 W5        30.33S
DULLES         MOCLDY    19   7  59 S5        30.30S
FORT BELVOIR   FAIR      18  10  71 CALM      30.33R
QUANTICO       FAIR      22  12  65 NW5       30.34S
FREDERICKSBRG* MOCLDY    20  10  64 CALM      30.32S
STAFFORD*      MOCLDY    19  11  72 CALM      30.36S
WARRENTON      MOCLDY    20  14  78 CALM      30.30S
CULPEPER*      MOCLDY    19  11  71 CALM      30.31S
MANASSAS*      PTCLDY    18  14  86 CALM      30.32S
LEESBURG*      MOCLDY    19  12  73 CALM      30.29F
WINCHESTER     MOCLDY    18   9  68 CALM      30.24F
FRONT ROYAL*   CLOUDY    18   9  68 S3        30.24F
LURAY*         CLOUDY    18  10  73 CALM      30.24S
$$

VAZ048-049-060>072-079>083-121400-
CENTRAL AND SOUTH CENTRAL VIRGINIA

CITY           SKY/WX    TMP DP  RH WIND       PRES   REMARKS
RICHMOND       MOCLDY    20  10  65 CALM      30.32S
CHESTERFIELD*  CLOUDY    19   1  45 CALM      30.33S
PETERSBURG*    CLOUDY    22  11  62 CALM      30.33S
HANOVER        FAIR      19   9  65 CALM      30.34R
TAPPAHANNOCK*  FAIR      17  13  81 CALM      30.33S
QUINTON*       FAIR      19  13  76 CALM      30.33S
CHARLOTTSVILLE CLOUDY    19   8  62 CALM      30.27F
GORDONSVILLE*  CLOUDY    20  10  66 SW5       30.29F
ORANGE*        FAIR      21  10  63 CALM      30.31S
LOUISA*        CLOUDY    21   9  58 S5        30.28S
BUMPASS*       CLOUDY    18   9  67 CALM      30.30S
FARMVILLE*     CLOUDY    23   9  56 CALM      30.29S
CREWE*         CLOUDY    22   5  47 SE3       30.29F
FORT PICKETT*  NOT AVBL
CHASE CITY*    PTSUNNY   22   3  44 E3        30.27F
CLARKSVILLE*   CLOUDY    23   7  50 E6        30.29R
SOUTH HILL*    MOCLDY    20   7  56 CALM      30.35S
LAWRENCEVILLE* FAIR      22   6  51 NE3       30.29F
EMPORIA*       CLOUDY    23  10  58 CALM      30.32F
$$

VAZ088>098-121400-
SOUTHEAST VIRGINIA

CITY           SKY/WX    TMP DP  RH WIND       PRES   REMARKS
NORFOLK        FAIR      27  10  49 NE9       30.31F
VIRGINIA BEACH FAIR      31  11  43 NE7       30.31F
NORFOLK NAVAL  FAIR      28  12  51 NE5       30.33R
WEST POINT*    FAIR      19  12  72 CALM      30.34F
SALUDA*        FAIR      23   6  47 N6        30.32F
NEWPORT NEWS   FAIR      22  11  62 N6        30.33R
LANGLEY AFB    FAIR      24  13  64 N5        30.31S
FORT EUSTIS    FAIR      23   7  51 N1        30.31S
WILLIAMSBURG*  FAIR      21  14  73 CALM      30.34S
HR EXEC AP*    FAIR      23  18  80 CALM      30.34R
FRANKLIN*      FAIR      21  10  63 NE3       30.33R
US460-WAKEFLD  PTSUNNY   22  11  62 CALM      30.33S
$$

VAZ020-022-025-037-045-121400-
WEST CENTRAL AND SOUTHWEST VIRGINIA

CITY           SKY/WX    TMP DP  RH WIND       PRES   REMARKS
STAUNTON*      CLOUDY    19  12  72 CALM      30.23F
WAYNESBORO*    CLOUDY    16   9  72 CALM      30.19F
HOT SPRINGS VA CLOUDY    17   6  63 SW6       29.97F
LYNCHBURG      CLOUDY    21   7  54 E3        30.26F
DANVILLE       FAIR      25   7  46 E3        30.27F
SOUTH BOSTON*  FAIR      23   5  45 E3        30.28F
MARTINSVILLE   MOCLDY    22   6  50 CALM      30.26R
ROANOKE        CLOUDY    22   7  52 E3        30.24F
BLACKSBURG     CLOUDY    19  12  72 CALM      30.16F
DUBLIN*        CLOUDY    22  13  68 E3        30.13F
MARION*        CLOUDY    22  13  67 CALM      30.10F
HILLSVILLE*    CLOUDY    21   8  59 SE5       30.06F
RICHLANDS*     CLOUDY    22  13  67 N5        30.05S
WISE*          CLOUDY    25  12  58 S3        30.06F
ABINGDON*      CLOUDY    28  14  55 E6        30.08S
$$

MDZ021>025-VAZ099-100-121400-
SOUTHERN MARYLAND AND THE DELMARVA PENINSULA

CITY           SKY/WX    TMP DP  RH WIND       PRES   REMARKS
PATUXENT RIVER MOSUNNY   20   7  57 CALM      30.33R
BAY BRIDGE APT   N/A     23   5  46 CALM      30.32S
LEONARDTOWN      N/A     19  12  73 MISG      30.34S
DOVER          SUNNY     18   9  69 NW2       30.30S
GEORGETOWN     MOSUNNY   18   9  68 CALM      30.32S
EASTON         MOSUNNY   19  10  68 CALM      30.35S
CAMBRIDGE      SUNNY     21  10  63 CALM      30.32S
SALISBURY      MOSUNNY   15  10  80 CALM      30.33R
OCEAN CITY     SUNNY     18  11  74 CALM      30.33S
WALLOPS ISLAND FAIR      21  12  68 CALM      30.33F
ACCOMACK*      FAIR      21   7  53 E3        30.33S
$$

NCZ012>017-030>032-121400-
NORTH CENTRAL AND EASTERN NORTH CAROLINA

CITY           SKY/WX    TMP DP  RH WIND       PRES   REMARKS
ROANOKE RAPIDS FAIR      25  10  54 CALM      30.31S
RALEIGH        MOCLDY    26   6  42 E8        30.26F
ELIZABETH CITY PTSUNNY   28  17  63 NE7       30.33R
AHOSKIE*       PTSUNNY   23  11  58 CALM      30.32R
EDENTON*       CLOUDY    29  17  62 NE3       30.32S
CURRITUCK*     MOSUNNY   30  16  56 N8        30.33R
KILL DEVIL HLS CLOUDY    32  19  57 CALM      30.30S
MANTEO         CLOUDY    32  21  64 NE8       30.31S
CAPE HATTERAS  CLOUDY    36  22  56 NE6       30.28S
TARBORO*       CLOUDY    28  12  51 NE6       30.32S
GOLDSBORO      CLOUDY    28  14  54 E6        30.27S
WASHINGTON     CLOUDY    28  16  61 E7        30.29F
GREENVILLE     CLOUDY    30  14  51 E5        30.29F
NEW BERN       MOSUNNY   30  19  63 E7        30.31R
WILMINGTON     LGT RAIN  35  20  54 NE10      30.24F
$$

VAZ048-121400-
ELSEWHERE

CITY           SKY/WX    TMP DP  RH WIND       PRES   REMARKS
HARRISBURG PA  CLOUDY    11   3  70 NE3       30.26S
BALTIMORE      MOCLDY    17   8  67 CALM      30.31R
ANNAPOLIS      PTCLDY    19   4  51 W5        30.32S
ANDREWS AFB    FAIR      19   8  63 S2        30.30R
PHILADELPHIA   MOSUNNY   18   0  45 NW8       30.31F
HENDERSON NC   PTCLDY    22   6  49 E3        30.27S
GREENSBORO     CLOUDY    25   5  42 E7        30.21F
ROCKY MOUNT    CLOUDY    27  10  49 NE6       30.30S
$$

VAZ100-121400-
MARINE

STATION/POSITION TIME  TEMP    WIND        PRES    WAVE   SWELL
                       AIR SEA DIR/SP/G            HT/PER HT/PER
                 (UTC) (F)     (DEG/KT/KT) (MB)    (FT/S) (FT/S)
BRANDYWINE LGT   1200   21     340/ 10/ 13 1026.4F
CAPE MAY NJ      1200   21 34  340/  6/ 12 1026.3F
LEWES DE         1200   19 37  280/  8/ 10 1026.7R
15NM E FENWICK I 1250   25 43              1026.5F   2/ 4
OCEAN-CITY-INLET 1200   20 35  310/  4/  6 1026.2F
WACHAPREAGUE VA  1200   21 35   20/  3/  4 1027.2F
THOMAS POINT MD  1300   20 37  310/  6/  7 1027.6R
GOOSES REEF MD   1200   22 37  340/  6/ 10 1027.7S   1
COVE POINT MD    1200   20     310/  6/  9 1027.2F
SOLOMONS ISLAND  1200   22 39  340/  5/  6   N/A
BISHOPS HEAD MD  1200   21 31  340/  3/  3 1025.8F
PINEY POINT MD   1200           40/  2/  3   N/A
POTOMAC MD       1200   22 38  360/  8/ 10 1025.9F   1
CAMBRIDGE MD     1200   22 36  320/  7/ 10 1026.0F
LEWISETTA VA     1200   23 38   10/  6/  9 1026.7F
RAPPAHANNOCK LGT 1200          350/  8/ 10 1026.9F
STINGRAY PT      1200   24 40  350/  8/ 12 1027.1F   1/ 3
YORK RVR RNG VA  1200   25      40/  9/ 10 1026.1F
YORKTOWN VA      1200   24 40   30/  6/  8 1026.7F
JAMESTOWN VA     1200   22 41   50/  2/  4   N/A     0
DOMINION TERM VA 1200   24      20/  4/  5 1026.6F
KIPTOPEKE VA     1200      39   70/  4/  5   N/A
CHES BAY BRIDGE  1200   26 40   30/  9/ 13 1026.2F
CAPE HENRY VA    1200   26      20/  9/ 15   N/A
CHESAPEAKE LGHT  1200   26     350/  8/ 10 1027.4F
WILLOUBY STN VA  1200   26     360/  7/  8 1027.1F
CAPE HENRY BUOY  1228      42                N/A     3/ 5
1ST LANDING BUOY 1200      40                N/A     2/ 3
CAPE CHARLES BUO 1226      42                N/A     2/ 5   2/ 5
OFFSHORE WE BUOY 1221      45                N/A     3/ 6   3/ 6
64NM E OF VA BCH 1250   31 50  350/ 10/ 14 1025.9F   4/ 6   3/ 6
DUCK PIER NC     1200   31      20/ 11/ 14 1025.6R
44100 DUCK FRF   1224      46                N/A     4/ 6
44056 DUCK FRF   1211      43                N/A     3/ 6
OREGON INLET NC  1200   33 40   20/  9/ 11 1026.3R
HATTERAS NC      1200   36 46   30/ 11/ 14 1024.7F
DIAMOND SHLS NC  1250   42 70   40/ 12/ 16 1025.2R   3/ 7   3/ 7
$$



USA.gov is the U.S. government's official web portal to all federal, state and local government web resources and services.